LZB8526 HESH-LBSF

Flight info

Callsign LZB8526
Flight time 2h 45m
Altitude 36000
Route KAPIT L677 CVO L617 NOZ L551 ANTAR UN133 PEREN UL863 EVIVI Y94 VANET
Aircraft A320/M-SDE3FGHIRWY/LB1

Departure

Time 2026-04-27 16:10
Airport Sharm El Sheikh International Airport (HESH)

Arrival

Time 2026-04-27 18:55
Airport Sofia Airport (LBSF)
Time Latitude Longitude Altitude Speed Heading
2026-04-27 16:05 27.97555 34.38698 189 ft 16 kts 222°
2026-04-27 16:06 27.97472 34.38610 188 ft 16 kts 223°
2026-04-27 16:06 27.97385 34.38519 188 ft 16 kts 223°
2026-04-27 16:06 27.97302 34.38432 189 ft 16 kts 222°
2026-04-27 16:06 27.97214 34.38341 187 ft 17 kts 222°
2026-04-27 16:07 27.97132 34.38256 187 ft 14 kts 223°
2026-04-27 16:07 27.97054 34.38175 187 ft 15 kts 222°
2026-04-27 16:07 27.96973 34.38137 185 ft 14 kts 155°
2026-04-27 16:07 27.96889 34.38234 176 ft 19 kts 131°
2026-04-27 16:08 27.96797 34.38346 167 ft 20 kts 133°
2026-04-27 16:08 27.96695 34.38472 159 ft 19 kts 133°
2026-04-27 16:08 27.96622 34.38560 153 ft 16 kts 132°
2026-04-27 16:08 27.96628 34.38658 151 ft 13 kts 42°
2026-04-27 16:09 27.96649 34.38680 152 ft 0 kts 43°
2026-04-27 16:09 27.96841 34.38879 159 ft 70 kts 42°
2026-04-27 16:09 27.97349 34.39408 163 ft 128 kts 42°
2026-04-27 16:10 27.99016 34.41154 633 ft 176 kts 43°
2026-04-27 16:10 28.01119 34.42420 1927 ft 170 kts 13°
2026-04-27 16:11 28.02265 34.42899 2304 ft 182 kts 17°
2026-04-27 16:11 28.04817 34.44111 2825 ft 221 kts 19°
2026-04-27 16:12 28.07846 34.45631 3620 ft 253 kts 20°
2026-04-27 16:12 28.09455 34.46450 4282 ft 259 kts 20°
2026-04-27 16:12 28.12815 34.48004 5847 ft 262 kts 11°
2026-04-27 16:13 28.14616 34.48301 6661 ft 262 kts
2026-04-27 16:13 28.18304 34.48394 8172 ft 271 kts 358°
2026-04-27 16:13 28.20195 34.48409 8907 ft 276 kts 354°
2026-04-27 16:14 28.23515 34.46612 10377 ft 275 kts 308°
2026-04-27 16:14 28.25386 34.42614 11230 ft 304 kts 295°
2026-04-27 16:15 28.27311 34.38028 11838 ft 336 kts 295°
2026-04-27 16:15 28.29329 34.33256 11924 ft 337 kts 295°
2026-04-27 16:16 28.31365 34.28447 11944 ft 338 kts 295°
2026-04-27 16:16 28.33402 34.23637 11982 ft 339 kts 295°
2026-04-27 16:17 28.35436 34.18833 12000 ft 338 kts 295°
2026-04-27 16:17 28.37473 34.14015 12013 ft 338 kts 295°
2026-04-27 16:18 28.39501 34.09208 12018 ft 338 kts 296°
2026-04-27 16:18 28.41540 34.04372 12090 ft 343 kts 296°
2026-04-27 16:19 28.42565 34.01942 12676 ft 346 kts 296°
2026-04-27 16:19 28.43604 33.99480 13496 ft 345 kts 295°
2026-04-27 16:20 28.46724 33.92063 15471 ft 352 kts 295°
2026-04-27 16:20 28.47776 33.89561 16092 ft 354 kts 295°
2026-04-27 16:20 28.49906 33.84487 17271 ft 359 kts 295°
2026-04-27 16:21 28.50979 33.81929 17811 ft 363 kts 295°
2026-04-27 16:21 28.54244 33.74136 19566 ft 368 kts 295°
2026-04-27 16:22 28.55359 33.71467 20090 ft 372 kts 295°
2026-04-27 16:22 28.57586 33.66138 21144 ft 376 kts 294°
2026-04-27 16:22 28.58702 33.63466 21663 ft 379 kts 294°
2026-04-27 16:23 28.59823 33.60770 22131 ft 382 kts 295°
2026-04-27 16:23 28.62205 33.55297 23094 ft 387 kts 298°
2026-04-27 16:23 28.63609 33.52676 23553 ft 390 kts 302°
2026-04-27 16:24 28.65171 33.50176 23983 ft 394 kts 306°
2026-04-27 16:24 28.68594 33.45285 24842 ft 398 kts 307°
2026-04-27 16:25 28.72094 33.40331 25629 ft 402 kts 306°
2026-04-27 16:25 28.75597 33.35364 26370 ft 406 kts 306°
2026-04-27 16:26 28.79123 33.30335 27120 ft 409 kts 306°
2026-04-27 16:26 28.82698 33.25229 27759 ft 413 kts 306°
2026-04-27 16:27 28.86293 33.20101 28383 ft 417 kts 306°
2026-04-27 16:27 28.91758 33.12300 29193 ft 422 kts 306°
2026-04-27 16:28 28.95398 33.07100 29915 ft 420 kts 306°
2026-04-27 16:28 28.99015 33.01925 30655 ft 415 kts 306°
2026-04-27 16:29 29.04374 32.94246 31599 ft 411 kts 306°
2026-04-27 16:30 29.07904 32.89181 32211 ft 407 kts 306°
2026-04-27 16:30 29.11424 32.84137 32758 ft 405 kts 306°
2026-04-27 16:31 29.16669 32.76646 33500 ft 402 kts 306°
2026-04-27 16:31 29.20129 32.71673 33877 ft 400 kts 306°
2026-04-27 16:32 29.23581 32.66700 34208 ft 399 kts 305°
2026-04-27 16:32 29.25310 32.64205 34334 ft 399 kts 306°
2026-04-27 16:33 29.28774 32.59200 34581 ft 400 kts 305°
2026-04-27 16:33 29.30504 32.56697 34665 ft 401 kts 305°
2026-04-27 16:33 29.33961 32.51689 34879 ft 401 kts 305°
2026-04-27 16:34 29.35686 32.49188 34984 ft 402 kts 305°
2026-04-27 16:34 29.37410 32.46687 35094 ft 402 kts 304°
2026-04-27 16:34 29.40884 32.41643 35263 ft 404 kts 305°
2026-04-27 16:35 29.42626 32.39111 35383 ft 404 kts 304°
2026-04-27 16:35 29.44357 32.36594 35508 ft 404 kts 304°
2026-04-27 16:35 29.47828 32.31525 35722 ft 405 kts 304°
2026-04-27 16:36 29.49575 32.28968 35860 ft 405 kts 304°
2026-04-27 16:36 29.53061 32.23870 36000 ft 406 kts 304°
2026-04-27 16:37 29.56529 32.18799 36007 ft 406 kts 304°
2026-04-27 16:37 29.60023 32.13692 36001 ft 407 kts 304°
2026-04-27 16:38 29.63518 32.08572 36015 ft 407 kts 304°
2026-04-27 16:38 29.66998 32.03471 36012 ft 406 kts 304°
2026-04-27 16:39 29.70475 31.98369 36001 ft 406 kts 304°
2026-04-27 16:39 29.73958 31.93250 36002 ft 407 kts 304°
2026-04-27 16:40 29.77448 31.88114 36014 ft 407 kts 304°
2026-04-27 16:40 29.80850 31.82951 36002 ft 407 kts 303°
2026-04-27 16:41 29.84196 31.77702 36004 ft 407 kts 303°
2026-04-27 16:41 29.87548 31.72457 36010 ft 407 kts 303°
2026-04-27 16:42 29.90910 31.67205 36014 ft 407 kts 303°
2026-04-27 16:42 29.94278 31.61980 36014 ft 407 kts 303°
2026-04-27 16:43 29.97666 31.56750 36013 ft 407 kts 304°
2026-04-27 16:43 30.01043 31.51524 36013 ft 407 kts 303°
2026-04-27 16:44 30.04440 31.46259 36012 ft 407 kts 303°
2026-04-27 16:44 30.07861 31.41107 36001 ft 407 kts 306°
2026-04-27 16:45 30.11717 31.36248 35995 ft 410 kts 311°
2026-04-27 16:45 30.15863 31.31745 36005 ft 410 kts 312°
2026-04-27 16:46 30.20052 31.27234 35986 ft 410 kts 312°
2026-04-27 16:46 30.24217 31.22754 35986 ft 410 kts 313°
2026-04-27 16:47 30.28389 31.18265 35995 ft 410 kts 313°
2026-04-27 16:47 30.32560 31.13767 35991 ft 410 kts 313°
2026-04-27 16:48 30.36720 31.09278 35995 ft 410 kts 313°
2026-04-27 16:48 30.40886 31.04777 35998 ft 411 kts 313°
2026-04-27 16:49 30.47147 30.98000 35994 ft 412 kts 313°
2026-04-27 16:49 30.51322 30.93476 36005 ft 412 kts 313°
2026-04-27 16:50 30.55520 30.88919 36006 ft 412 kts 313°
2026-04-27 16:50 30.59690 30.84389 36008 ft 412 kts 313°
2026-04-27 16:51 30.63864 30.79848 36006 ft 411 kts 313°
2026-04-27 16:51 30.68032 30.75308 35995 ft 411 kts 313°
2026-04-27 16:52 30.72180 30.70784 36009 ft 412 kts 313°
2026-04-27 16:52 30.75656 30.66990 36006 ft 412 kts 313°
2026-04-27 16:53 30.80536 30.61652 36008 ft 412 kts 313°
2026-04-27 16:53 30.84687 30.57105 36019 ft 411 kts 313°
2026-04-27 16:54 30.88857 30.52537 36020 ft 411 kts 313°
2026-04-27 16:54 30.93000 30.47988 36018 ft 411 kts 313°
2026-04-27 16:55 30.97172 30.43403 36009 ft 412 kts 313°
2026-04-27 16:55 31.01309 30.38849 36009 ft 411 kts 313°
2026-04-27 16:56 31.05198 30.34008 36022 ft 409 kts 306°
2026-04-27 16:56 31.08450 30.28554 36020 ft 407 kts 299°
2026-04-27 16:57 31.10984 30.22716 36024 ft 407 kts 292°
2026-04-27 16:57 31.12890 30.16529 36024 ft 407 kts 288°
2026-04-27 16:58 31.14629 30.10253 36010 ft 406 kts 288°
2026-04-27 16:58 31.16459 30.04040 36013 ft 406 kts 293°
2026-04-27 16:59 31.19258 29.98319 36019 ft 408 kts 304°
2026-04-27 16:59 31.23073 29.93393 36030 ft 412 kts 315°
2026-04-27 17:00 31.30338 29.87847 36040 ft 419 kts 327°
2026-04-27 17:01 31.35482 29.84615 36014 ft 419 kts 327°
2026-04-27 17:01 31.40621 29.81397 36019 ft 420 kts 327°
2026-04-27 17:02 31.45759 29.78177 36019 ft 420 kts 327°
2026-04-27 17:02 31.50891 29.74955 36023 ft 420 kts 327°
2026-04-27 17:03 31.56033 29.71723 36028 ft 419 kts 327°
2026-04-27 17:03 31.61161 29.68496 36029 ft 420 kts 328°
2026-04-27 17:04 31.66337 29.65235 36037 ft 420 kts 327°
2026-04-27 17:04 31.71466 29.62000 36029 ft 420 kts 327°
2026-04-27 17:05 31.76601 29.58754 36037 ft 420 kts 327°
2026-04-27 17:05 31.81764 29.55487 36027 ft 420 kts 328°
2026-04-27 17:06 31.86905 29.52233 36022 ft 419 kts 328°
2026-04-27 17:06 31.92036 29.48978 36031 ft 420 kts 328°
2026-04-27 17:07 31.97161 29.45722 36027 ft 420 kts 328°
2026-04-27 17:07 32.02315 29.42446 36025 ft 421 kts 328°
2026-04-27 17:08 32.07486 29.39156 36027 ft 421 kts 328°
2026-04-27 17:08 32.12637 29.35878 36034 ft 421 kts 328°
2026-04-27 17:09 32.17771 29.32598 36034 ft 420 kts 327°
2026-04-27 17:09 32.22877 29.29322 36028 ft 420 kts 327°
2026-04-27 17:10 32.28044 29.26010 36036 ft 420 kts 327°
2026-04-27 17:10 32.33163 29.22725 36042 ft 420 kts 327°
2026-04-27 17:11 32.38281 29.19437 36047 ft 420 kts 327°
2026-04-27 17:11 32.46007 29.14464 36044 ft 420 kts 327°
2026-04-27 17:12 32.53685 29.09516 36047 ft 420 kts 327°
2026-04-27 17:13 32.58816 29.06202 36044 ft 419 kts 327°
2026-04-27 17:13 32.63923 29.02900 36040 ft 419 kts 327°
2026-04-27 17:14 32.69044 28.99585 36048 ft 419 kts 327°
2026-04-27 17:14 32.74161 28.96265 36044 ft 420 kts 327°
2026-04-27 17:15 32.79273 28.92947 36050 ft 421 kts 328°
2026-04-27 17:15 32.84392 28.89619 36048 ft 420 kts 328°
2026-04-27 17:16 32.89534 28.86272 36049 ft 420 kts 328°
2026-04-27 17:16 32.94644 28.82943 36049 ft 419 kts 328°
2026-04-27 17:17 32.99766 28.79600 36042 ft 420 kts 327°
2026-04-27 17:17 33.04875 28.76262 36045 ft 420 kts 328°
2026-04-27 17:18 33.12563 28.71237 36040 ft 420 kts 328°
2026-04-27 17:18 33.17712 28.67881 36033 ft 420 kts 328°
2026-04-27 17:19 33.22830 28.64528 36034 ft 420 kts 328°
2026-04-27 17:19 33.27947 28.61166 36031 ft 420 kts 328°
2026-04-27 17:20 33.33063 28.57800 36031 ft 421 kts 328°
2026-04-27 17:20 33.38279 28.54572 36034 ft 422 kts 330°
2026-04-27 17:21 33.43548 28.51464 36035 ft 422 kts 330°
2026-04-27 17:21 33.48812 28.48332 36035 ft 422 kts 330°
2026-04-27 17:22 33.54052 28.45192 36031 ft 423 kts 330°
2026-04-27 17:22 33.59322 28.42024 36034 ft 422 kts 330°
2026-04-27 17:23 33.64566 28.38864 36038 ft 423 kts 330°
2026-04-27 17:23 33.69810 28.35699 36037 ft 423 kts 330°
2026-04-27 17:24 33.75058 28.32509 36037 ft 422 kts 329°
2026-04-27 17:24 33.80283 28.29322 36037 ft 422 kts 329°
2026-04-27 17:25 33.85524 28.26133 36038 ft 422 kts 329°
2026-04-27 17:25 33.90737 28.22965 36041 ft 422 kts 329°
2026-04-27 17:26 33.95976 28.19776 36043 ft 422 kts 329°
2026-04-27 17:26 34.01213 28.16588 36039 ft 422 kts 329°
2026-04-27 17:27 34.06451 28.13393 36030 ft 422 kts 329°
2026-04-27 17:27 34.11692 28.10196 36025 ft 422 kts 329°
2026-04-27 17:28 34.16911 28.07026 36026 ft 422 kts 329°
2026-04-27 17:29 34.24782 28.02219 36024 ft 424 kts 329°
2026-04-27 17:29 34.30063 27.98983 36024 ft 423 kts 329°
2026-04-27 17:30 34.35280 27.95778 36026 ft 424 kts 329°
2026-04-27 17:30 34.43160 27.90930 36020 ft 423 kts 329°
2026-04-27 17:31 34.48402 27.87697 36016 ft 424 kts 329°
2026-04-27 17:31 34.53681 27.84438 36013 ft 425 kts 329°
2026-04-27 17:32 34.61575 27.79555 36020 ft 427 kts 330°
2026-04-27 17:33 34.66861 27.76280 36015 ft 426 kts 330°
2026-04-27 17:33 34.72126 27.73014 36018 ft 425 kts 329°
2026-04-27 17:34 34.77388 27.69743 36010 ft 426 kts 330°
2026-04-27 17:34 34.82681 27.66449 36009 ft 427 kts 330°
2026-04-27 17:35 34.87968 27.63155 36017 ft 427 kts 330°
2026-04-27 17:35 34.93264 27.59848 36015 ft 428 kts 330°
2026-04-27 17:36 34.98554 27.56541 36012 ft 428 kts 330°
2026-04-27 17:36 35.03863 27.53218 36015 ft 428 kts 330°
2026-04-27 17:37 35.09135 27.49914 36006 ft 428 kts 330°
2026-04-27 17:37 35.14449 27.46590 36013 ft 430 kts 330°
2026-04-27 17:38 35.19773 27.43260 36011 ft 430 kts 330°
2026-04-27 17:38 35.25084 27.39923 36011 ft 430 kts 330°
2026-04-27 17:39 35.30396 27.36575 36011 ft 430 kts 330°
2026-04-27 17:39 35.35716 27.33207 36011 ft 429 kts 329°
2026-04-27 17:40 35.41004 27.29835 36010 ft 430 kts 329°
2026-04-27 17:40 35.46289 27.26476 36010 ft 428 kts 329°
2026-04-27 17:41 35.51577 27.23117 36006 ft 427 kts 329°
2026-04-27 17:41 35.56838 27.19771 36009 ft 427 kts 329°
2026-04-27 17:42 35.62090 27.16429 36006 ft 427 kts 330°
2026-04-27 17:42 35.67361 27.13071 36009 ft 427 kts 330°
2026-04-27 17:43 35.72650 27.09694 36010 ft 427 kts 330°
2026-04-27 17:43 35.77916 27.06331 36004 ft 427 kts 330°
2026-04-27 17:44 35.83161 27.02975 36004 ft 427 kts 330°
2026-04-27 17:44 35.88445 26.99588 36010 ft 427 kts 330°
2026-04-27 17:45 35.93680 26.96226 36005 ft 427 kts 330°
2026-04-27 17:45 35.98964 26.92829 36007 ft 427 kts 330°
2026-04-27 17:46 36.04205 26.89453 36008 ft 426 kts 330°
2026-04-27 17:46 36.09457 26.86065 36005 ft 427 kts 330°
2026-04-27 17:47 36.14729 26.82674 36009 ft 426 kts 330°
2026-04-27 17:47 36.19986 26.79288 36009 ft 426 kts 330°
2026-04-27 17:48 36.25230 26.75897 36016 ft 426 kts 330°
2026-04-27 17:48 36.30483 26.72491 36015 ft 426 kts 330°
2026-04-27 17:49 36.35748 26.69072 36019 ft 426 kts 330°
2026-04-27 17:49 36.40993 26.65659 36016 ft 426 kts 330°
2026-04-27 17:50 36.46208 26.62259 36021 ft 426 kts 330°
2026-04-27 17:50 36.54081 26.57115 36024 ft 426 kts 330°
2026-04-27 17:51 36.59354 26.53665 36023 ft 426 kts 330°
2026-04-27 17:51 36.64593 26.50231 36030 ft 426 kts 330°
2026-04-27 17:52 36.69805 26.46811 36035 ft 426 kts 330°
2026-04-27 17:52 36.74186 26.43931 36030 ft 426 kts 330°
2026-04-27 17:53 36.80272 26.39924 36036 ft 426 kts 330°
2026-04-27 17:53 36.85497 26.36478 36037 ft 426 kts 330°
2026-04-27 17:54 36.90754 26.32995 36036 ft 426 kts 329°
2026-04-27 17:54 36.95956 26.29528 36033 ft 426 kts 329°
2026-04-27 17:55 37.01196 26.26046 36036 ft 427 kts 330°
2026-04-27 17:55 37.06437 26.22563 36034 ft 428 kts 330°
2026-04-27 17:56 37.11697 26.19069 36038 ft 428 kts 330°
2026-04-27 17:56 37.16969 26.15580 36041 ft 428 kts 330°
2026-04-27 17:57 37.22236 26.12081 36044 ft 428 kts 330°
2026-04-27 17:57 37.27470 26.08590 36046 ft 427 kts 330°
2026-04-27 17:58 37.32708 26.05087 36045 ft 427 kts 330°
2026-04-27 17:58 37.37846 26.01644 36045 ft 428 kts 330°
2026-04-27 17:59 37.43111 25.98111 36042 ft 428 kts 330°
2026-04-27 17:59 37.48358 25.94584 36051 ft 428 kts 330°
2026-04-27 18:00 37.53605 25.91052 36051 ft 428 kts 330°
2026-04-27 18:00 37.58859 25.87509 36052 ft 428 kts 330°
2026-04-27 18:01 37.64177 25.84149 36058 ft 428 kts 332°
2026-04-27 18:01 37.69532 25.80851 36052 ft 428 kts 332°
2026-04-27 18:02 37.74887 25.77531 36053 ft 429 kts 332°
2026-04-27 18:02 37.80224 25.74208 36058 ft 429 kts 332°
2026-04-27 18:03 37.85594 25.70856 36064 ft 430 kts 332°
2026-04-27 18:03 37.90928 25.67518 36078 ft 430 kts 332°
2026-04-27 18:04 37.96297 25.64155 36088 ft 430 kts 332°
2026-04-27 18:04 38.01619 25.60813 36088 ft 430 kts 332°
2026-04-27 18:05 38.06966 25.57451 36095 ft 430 kts 332°
2026-04-27 18:05 38.12351 25.54064 36100 ft 430 kts 332°
2026-04-27 18:06 38.17693 25.50713 36104 ft 430 kts 332°
2026-04-27 18:06 38.23053 25.47334 36101 ft 429 kts 332°
2026-04-27 18:07 38.28431 25.44040 36098 ft 430 kts 333°
2026-04-27 18:07 38.33841 25.40797 36091 ft 430 kts 333°
2026-04-27 18:08 38.39206 25.37559 36093 ft 429 kts 333°
2026-04-27 18:08 38.44593 25.34289 36099 ft 428 kts 332°
2026-04-27 18:09 38.49985 25.30982 36097 ft 428 kts 332°
2026-04-27 18:09 38.55359 25.27688 36096 ft 428 kts 332°
2026-04-27 18:10 38.60719 25.24406 36105 ft 429 kts 332°
2026-04-27 18:10 38.66100 25.21109 36100 ft 429 kts 332°
2026-04-27 18:11 38.70575 25.18365 36107 ft 429 kts 332°
2026-04-27 18:11 38.76728 25.14588 36116 ft 428 kts 332°
2026-04-27 18:12 38.82117 25.11275 36106 ft 428 kts 332°
2026-04-27 18:12 38.87467 25.07981 36117 ft 427 kts 332°
2026-04-27 18:13 38.92802 25.04689 36115 ft 428 kts 332°
2026-04-27 18:13 38.98151 25.01382 36118 ft 428 kts 332°
2026-04-27 18:14 39.03532 24.98050 36105 ft 428 kts 332°
2026-04-27 18:14 39.08893 24.94722 36112 ft 429 kts 332°
2026-04-27 18:15 39.14285 24.91384 36108 ft 428 kts 332°
2026-04-27 18:15 39.19637 24.88068 36115 ft 428 kts 332°
2026-04-27 18:16 39.24976 24.84748 36121 ft 428 kts 332°
2026-04-27 18:16 39.30350 24.81394 36124 ft 429 kts 332°
2026-04-27 18:17 39.35704 24.78046 36131 ft 428 kts 332°
2026-04-27 18:17 39.41068 24.74684 36136 ft 428 kts 332°
2026-04-27 18:18 39.46405 24.71334 36141 ft 428 kts 332°
2026-04-27 18:18 39.51762 24.67966 36142 ft 428 kts 332°
2026-04-27 18:19 39.57123 24.64591 36150 ft 429 kts 332°
2026-04-27 18:19 39.62487 24.61207 36156 ft 429 kts 332°
2026-04-27 18:20 39.67823 24.57834 36160 ft 429 kts 332°
2026-04-27 18:20 39.73181 24.54443 36160 ft 429 kts 332°
2026-04-27 18:21 39.78518 24.51058 36172 ft 428 kts 332°
2026-04-27 18:21 39.83850 24.47671 36182 ft 427 kts 332°
2026-04-27 18:22 39.89189 24.44272 36184 ft 427 kts 332°
2026-04-27 18:22 39.94496 24.40889 36187 ft 427 kts 332°
2026-04-27 18:23 39.99833 24.37480 36187 ft 427 kts 332°
2026-04-27 18:23 40.05163 24.34067 36193 ft 427 kts 331°
2026-04-27 18:24 40.10470 24.30637 36200 ft 426 kts 331°
2026-04-27 18:24 40.15807 24.27212 36188 ft 426 kts 331°
2026-04-27 18:25 40.21078 24.23830 36191 ft 425 kts 331°
2026-04-27 18:25 40.26400 24.20405 36191 ft 425 kts 331°
2026-04-27 18:26 40.31671 24.17003 36184 ft 425 kts 331°
2026-04-27 18:26 40.36961 24.13582 36196 ft 425 kts 331°
2026-04-27 18:27 40.42258 24.10150 36193 ft 425 kts 331°
2026-04-27 18:27 40.47562 24.06709 36191 ft 424 kts 331°
2026-04-27 18:28 40.52837 24.03281 36195 ft 424 kts 331°
2026-04-27 18:28 40.58121 23.99841 36194 ft 424 kts 331°
2026-04-27 18:29 40.63388 23.96406 36194 ft 424 kts 331°
2026-04-27 18:29 40.68576 23.93018 36191 ft 423 kts 331°
2026-04-27 18:30 40.73978 23.89482 36197 ft 424 kts 331°
2026-04-27 18:30 40.79292 23.85997 36187 ft 424 kts 331°
2026-04-27 18:31 40.84558 23.82536 36193 ft 423 kts 331°
2026-04-27 18:31 40.89819 23.79073 36191 ft 423 kts 331°
2026-04-27 18:32 40.95058 23.75621 36194 ft 423 kts 331°
2026-04-27 18:32 41.00342 23.72132 36194 ft 423 kts 331°
2026-04-27 18:33 41.05607 23.68649 36190 ft 423 kts 331°
2026-04-27 18:33 41.10843 23.65179 36185 ft 423 kts 331°
2026-04-27 18:34 41.16145 23.61676 36182 ft 423 kts 331°
2026-04-27 18:34 41.21397 23.58191 36182 ft 423 kts 331°
2026-04-27 18:35 41.26635 23.54699 36180 ft 423 kts 331°
2026-04-27 18:35 41.31903 23.51181 36181 ft 423 kts 332°
2026-04-27 18:36 41.34572 23.49547 36075 ft 425 kts 335°
2026-04-27 18:36 41.37339 23.48145 35845 ft 425 kts 339°
2026-04-27 18:36 41.40152 23.47007 35622 ft 424 kts 342°
2026-04-27 18:36 41.42076 23.46383 35475 ft 423 kts 345°
2026-04-27 18:37 41.44954 23.45678 35251 ft 423 kts 348°
2026-04-27 18:37 41.48865 23.45139 34939 ft 423 kts 353°
2026-04-27 18:37 41.51802 23.44936 34570 ft 423 kts 352°
2026-04-27 18:37 41.54654 23.44320 33939 ft 420 kts 343°
2026-04-27 18:38 41.57477 23.43205 32911 ft 425 kts 339°
2026-04-27 18:38 41.60263 23.41970 32074 ft 426 kts 339°
2026-04-27 18:38 41.63073 23.40710 31199 ft 429 kts 339°
2026-04-27 18:38 41.65911 23.39443 30169 ft 434 kts 339°
2026-04-27 18:39 41.68819 23.38153 29129 ft 439 kts 340°
2026-04-27 18:39 41.71683 23.36888 28124 ft 442 kts 340°
2026-04-27 18:39 41.73656 23.36019 27420 ft 444 kts 340°
2026-04-27 18:39 41.77571 23.34294 26049 ft 446 kts 339°
2026-04-27 18:40 41.79549 23.33415 25521 ft 444 kts 339°
2026-04-27 18:40 41.83437 23.31688 24584 ft 438 kts 340°
2026-04-27 18:40 41.86309 23.30417 23879 ft 434 kts 340°
2026-04-27 18:40 41.88193 23.29584 23421 ft 431 kts 340°
2026-04-27 18:41 41.91043 23.28327 22746 ft 427 kts 340°
2026-04-27 18:41 41.94787 23.26676 21865 ft 422 kts 340°
2026-04-27 18:41 41.96648 23.25856 21433 ft 419 kts 340°
2026-04-27 18:41 42.00309 23.24239 20572 ft 414 kts 340°
2026-04-27 18:42 42.02090 23.23453 20148 ft 412 kts 340°
2026-04-27 18:42 42.03897 23.22654 19718 ft 409 kts 340°
2026-04-27 18:42 42.08376 23.20672 18540 ft 406 kts 340°
2026-04-27 18:42 42.11090 23.19469 17458 ft 413 kts 341°
2026-04-27 18:43 42.13809 23.18268 16495 ft 415 kts 341°
2026-04-27 18:43 42.16540 23.17062 15805 ft 410 kts 341°
2026-04-27 18:43 42.19229 23.15872 15125 ft 405 kts 341°
2026-04-27 18:43 42.21914 23.14680 14420 ft 401 kts 341°
2026-04-27 18:44 42.23642 23.13912 13958 ft 398 kts 341°
2026-04-27 18:44 42.27132 23.12360 13032 ft 393 kts 341°
2026-04-27 18:44 42.28852 23.11594 12429 ft 394 kts 341°
2026-04-27 18:44 42.32315 23.10051 11281 ft 393 kts 341°
2026-04-27 18:45 42.34887 23.08903 10595 ft 388 kts 341°
2026-04-27 18:45 42.36582 23.08145 10137 ft 384 kts 341°
2026-04-27 18:45 42.39954 23.06639 9151 ft 380 kts 341°
2026-04-27 18:45 42.42426 23.05534 8596 ft 377 kts 341°
2026-04-27 18:46 42.44089 23.04790 8376 ft 378 kts 341°
2026-04-27 18:46 42.47425 23.03296 8281 ft 379 kts 341°
2026-04-27 18:46 42.49929 23.02174 8277 ft 379 kts 341°
2026-04-27 18:46 42.52409 23.01062 8266 ft 367 kts 341°
2026-04-27 18:47 42.54002 23.00347 8256 ft 345 kts 341°
2026-04-27 18:47 42.56833 22.99078 8065 ft 307 kts 341°
2026-04-27 18:47 42.58814 22.98190 7513 ft 291 kts 341°
2026-04-27 18:47 42.60073 22.97625 7239 ft 279 kts 341°
2026-04-27 18:48 42.62456 22.96759 6771 ft 258 kts 359°
2026-04-27 18:48 42.64108 22.97413 6444 ft 247 kts 37°
2026-04-27 18:48 42.64857 22.98542 6249 ft 241 kts 63°
2026-04-27 18:48 42.65472 23.01404 5994 ft 232 kts 73°
2026-04-27 18:49 42.65937 23.03451 5833 ft 224 kts 71°
2026-04-27 18:49 42.66266 23.04789 5716 ft 220 kts 70°
2026-04-27 18:49 42.66754 23.06770 5265 ft 228 kts 71°
2026-04-27 18:49 42.67416 23.09496 4791 ft 230 kts 71°
2026-04-27 18:50 42.67907 23.11558 4512 ft 228 kts 71°
2026-04-27 18:50 42.68230 23.12920 4395 ft 222 kts 72°
2026-04-27 18:50 42.68681 23.14837 4383 ft 210 kts 72°
2026-04-27 18:50 42.69242 23.17241 4436 ft 190 kts 72°
2026-04-27 18:51 42.69630 23.18907 4394 ft 184 kts 72°
2026-04-27 18:51 42.69887 23.20011 4388 ft 185 kts 72°
2026-04-27 18:51 42.70272 23.21664 4381 ft 185 kts 72°
2026-04-27 18:51 42.70526 23.23368 4329 ft 178 kts 83°
2026-04-27 18:52 42.70575 23.25538 3948 ft 168 kts 90°
2026-04-27 18:52 42.70551 23.26581 3794 ft 161 kts 92°
2026-04-27 18:52 42.70481 23.28072 3474 ft 158 kts 94°
2026-04-27 18:53 42.70307 23.30895 3062 ft 141 kts 95°
2026-04-27 18:53 42.70202 23.32604 2808 ft 134 kts 95°
2026-04-27 18:53 42.70153 23.33434 2691 ft 134 kts 94°
2026-04-27 18:53 42.70078 23.34695 2521 ft 133 kts 94°
2026-04-27 18:54 42.70000 23.35935 2351 ft 131 kts 94°
2026-04-27 18:54 42.69923 23.37174 2178 ft 130 kts 94°
2026-04-27 18:54 42.69825 23.38804 1948 ft 129 kts 94°
2026-04-27 18:54 42.69774 23.39601 1839 ft 128 kts 94°
2026-04-27 18:55 42.69686 23.41112 1752 ft 101 kts 95°
2026-04-27 18:55 42.69634 23.41941 1752 ft 69 kts 94°
2026-04-27 18:55 42.69579 23.42519 1752 ft 55 kts 107°
2026-04-27 18:55 42.69471 23.42741 1752 ft 24 kts 159°
2026-04-27 18:56 42.69401 23.42628 1752 ft 18 kts 270°
2026-04-27 18:56 42.69413 23.42462 1752 ft 14 kts 268°
2026-04-27 18:56 42.69423 23.42272 1752 ft 15 kts 274°
2026-04-27 18:56 42.69429 23.42174 1752 ft 15 kts 274°
2026-04-27 18:57 42.69439 23.42021 1752 ft 16 kts 273°
2026-04-27 18:57 42.69447 23.41866 1752 ft 16 kts 274°
2026-04-27 18:57 42.69457 23.41704 1752 ft 17 kts 275°
2026-04-27 18:57 42.69467 23.41539 1752 ft 17 kts 274°
2026-04-27 18:58 42.69477 23.41375 1752 ft 17 kts 274°
2026-04-27 18:58 42.69462 23.41236 1752 ft 14 kts 228°
2026-04-27 18:58 42.69371 23.41191 1752 ft 14 kts 192°
2026-04-27 18:58 42.69273 23.41161 1752 ft 14 kts 192°
2026-04-27 18:59 42.69171 23.41132 1752 ft 15 kts 193°
2026-04-27 18:59 42.69106 23.41029 1752 ft 15 kts 250°
2026-04-27 18:59 42.69072 23.40892 1752 ft 15 kts 252°
2026-04-27 18:59 42.69063 23.40702 1752 ft 8 kts 286°
2026-04-27 19:00 42.69041 23.40653 1752 ft 7 kts 200°
2026-04-27 19:00 42.69006 23.40638 1752 ft 5 kts 197°
2026-04-27 19:00 42.69000 23.40636 1752 ft 0 kts 197°